Theta_e
308 309 308 308 308 308 308 305 304 306 309 309 310 310 310 310 308 309 309 310 313 314 315 316 316 317 319 318 318 317 316 318 318 320 322 321 322 324 325 325 327 332 354 349 347
308 308 308 308 308 308 308 309 309 309 309 309 310 309 308 308 309 311 310 312 312 312 313 315 317 316 317 319 318 318 316 318 318 318 320 321 323 324 324 323 324 352 351 349 348
305 306 305 305 307 306 307 308 308 308 309 309 309 308 309 309 311 315 317 314 314 314 314 313 314 314 314 320 320 319 321 319 318 318 319 321 321 322 323 323 322 334 359 353 349
299 299 299 298 299 299 299 305 308 308 309 309 309 309 309 310 312 322 315 314 315 315 314 314 312 313 315 318 321 321 320 320 319 319 318 318 318 319 319 321 323 323 346 356 355
297 296 296 297 297 297 297 299 307 308 309 308 309 309 308 311 313 316 317 315 315 315 315 317 315 311 313 316 318 321 321 321 318 317 317 317 318 318 317 318 322 323 327 343 349
296 296 296 297 297 297 297 300 306 308 309 308 309 309 309 311 311 315 317 316 316 320 323 322 323 315 314 314 315 318 320 321 321 318 316 317 318 317 318 318 321 321 324 326 333
296 296 296 296 297 297 297 301 307 307 307 308 309 310 311 310 312 315 316 313 313 316 318 320 322 320 317 315 317 318 320 320 321 321 322 319 317 318 318 317 318 319 321 321 322
296 296 296 296 297 297 298 304 306 308 308 309 311 311 312 310 312 314 313 313 313 313 313 314 316 318 320 319 321 321 320 321 320 321 322 322 324 320 319 317 317 318 319 319 319
295 296 296 297 297 298 298 309 311 311 307 311 311 313 316 317 317 315 314 313 314 313 314 314 316 317 319 320 321 321 323 320 321 321 322 323 324 322 320 317 316 317 317 318 318
296 296 296 297 297 299 302 312 314 311 313 313 313 315 316 318 317 316 315 313 313 314 313 313 314 316 317 319 324 323 323 321 322 322 322 322 323 323 320 320 319 316 317 317 317
295 296 296 297 298 300 306 311 312 312 314 317 314 316 316 316 316 318 318 319 319 319 320 313 313 317 315 317 320 321 321 322 321 321 322 322 323 323 321 321 320 317 317 316 316
296 295 296 297 300 304 310 312 313 311 311 311 311 311 312 312 313 313 313 317 319 321 320 320 315 314 317 317 317 318 318 319 319 319 320 321 322 322 323 322 321 319 317 317 317
296 297 296 298 302 312 313 314 312 313 312 312 311 312 312 313 313 313 314 313 313 314 317 320 320 320 317 316 318 317 315 317 318 319 319 319 320 320 323 323 321 320 319 318 318
297 298 298 298 306 306 313 312 312 312 314 314 318 317 317 318 319 319 316 313 311 314 315 314 317 319 319 320 317 318 317 317 317 317 319 318 320 319 323 324 324 321 320 319 319
299 298 297 298 303 309 314 313 311 313 323 317 315 314 311 317 318 318 318 321 321 320 320 321 319 322 323 322 321 322 321 323 324 322 318 317 318 319 323 325 325 322 320 319 319
300 300 297 302 307 309 311 310 310 317 324 316 309 308 307 307 309 311 311 316 318 319 320 318 316 319 319 318 320 322 323 324 324 323 326 317 317 318 320 322 324 324 320 321 319
298 299 300 304 308 312 310 308 314 319 315 312 308 307 306 307 306 307 307 307 317 319 317 317 318 316 318 318 317 318 319 328 329 327 327 319 317 318 320 323 324 323 322 321 320
296 300 304 307 310 311 308 309 314 317 311 307 306 305 306 305 306 308 307 307 308 312 315 318 319 316 316 317 319 319 319 321 327 325 324 321 320 318 319 320 323 323 322 322 321
298 302 306 311 311 311 306 314 314 314 308 306 305 305 306 306 307 308 308 308 308 316 320 322 322 317 318 319 320 323 323 321 324 325 328 326 320 318 319 319 319 319 319 318 320
300 303 307 312 311 309 308 313 314 308 307 306 306 306 308 307 309 309 309 308 309 309 316 318 321 316 318 320 319 322 321 327 320 327 325 323 324 321 327 328 321 319 318 317 321
301 305 310 309 309 309 310 312 308 307 307 308 306 306 307 309 309 309 309 310 312 314 315 318 319 317 317 322 322 321 324 324 323 325 325 321 320 327 330 328 329 330 318 320 335
301 306 309 308 308 309 309 306 307 307 308 308 308 307 309 310 310 310 315 312 312 313 316 316 317 317 318 316 319 321 323 324 323 324 325 324 325 328 329 328 328 335 322 346 345
302 306 310 306 308 306 305 306 306 309 309 308 307 307 310 310 310 310 313 311 312 314 316 316 318 315 316 323 319 319 317 323 324 326 326 325 329 325 330 330 330 340 345 345 345
303 309 307 305 305 306 305 306 308 308 307 307 306 307 309 308 307 309 309 310 311 311 315 315 315 317 317 319 317 319 319 320 322 325 325 325 324 326 325 330 331 333 339 342 344
306 306 304 304 304 305 304 306 306 308 306 306 307 308 307 308 308 310 311 311 311 313 315 315 311 314 315 315 315 315 316 317 320 321 326 327 327 329 329 332 328 331 336 340 345
303 303 301 302 303 304 304 305 307 306 306 307 307 307 309 311 311 313 311 309 311 310 311 315 318 314 315 314 317 318 317 318 319 321 323 326 329 329 330 331 333 335 337 338 343
300 300 301 303 302 302 304 305 305 305 306 306 307 308 312 310 309 308 307 307 308 310 310 311 313 313 312 316 316 320 323 322 321 319 321 330 327 327 330 332 333 333 331 330 330
Wind_Speed
20 20 21 22 23 23 23 23 23 23 22 23 23 23 25 27 33 28 13 19 11 5 5 13 14 16 15 7 9 5 4 10 13 15 12 12 11 15 7 7 4 4 7 23 33
21 21 22 22 23 23 24 23 23 23 22 22 22 24 25 28 31 24 23 17 17 23 15 12 8 11 6 8 6 8 7 19 13 12 11 12 18 19 6 10 5 11 21 29 32
24 24 26 26 26 27 26 25 25 23 22 21 21 20 23 23 9 7 4 1 6 26 17 13 16 7 12 11 12 7 20 17 18 16 19 20 23 18 13 7 7 10 19 21 21
28 29 30 31 32 32 34 31 27 25 23 22 20 19 19 12 6 5 8 3 3 14 19 14 7 3 5 8 15 18 19 23 20 20 21 18 10 17 5 10 8 7 13 14 13
31 32 33 35 36 37 39 36 31 28 25 22 18 16 11 4 12 12 7 3 8 15 18 13 11 8 8 6 13 19 19 20 18 23 25 18 19 19 9 12 8 1 6 16 14
34 35 37 38 37 39 39 37 35 30 26 21 17 10 5 8 9 9 13 12 10 17 16 16 7 12 8 11 18 9 16 18 18 23 21 23 22 7 19 11 10 4 8 6 8
34 36 38 40 40 44 42 40 34 28 23 18 11 7 9 23 9 10 13 12 11 17 13 20 22 13 6 10 19 18 19 18 24 15 19 8 17 20 16 8 11 9 6 9 8
36 39 41 42 44 45 43 39 36 32 18 14 9 8 9 18 16 14 16 19 17 16 20 21 24 11 11 9 19 16 14 19 12 18 20 7 26 22 13 9 12 10 7 7 8
39 41 43 44 46 45 44 34 36 12 4 2 4 6 11 14 8 21 18 13 17 23 19 14 12 7 7 8 9 9 18 17 15 16 11 14 28 17 15 9 10 9 8 6 7
41 42 45 46 48 45 39 36 15 4 2 5 9 5 10 5 11 8 15 14 7 8 11 7 5 7 6 6 15 10 12 14 21 17 18 14 26 19 11 14 16 10 12 8 9
42 44 46 46 49 44 32 18 5 2 4 9 15 11 21 24 33 9 10 12 7 6 10 10 8 16 10 15 19 17 18 20 20 16 22 18 22 20 18 20 17 12 9 10 11
45 46 49 49 50 30 11 3 7 13 18 23 28 28 40 39 29 29 30 10 9 12 10 12 20 17 14 18 20 22 23 23 21 19 16 16 26 20 18 19 23 16 10 11 9
46 46 48 49 43 8 15 14 17 18 5 23 12 10 11 18 23 24 18 16 15 13 13 16 21 16 21 22 22 20 19 17 20 18 21 17 20 14 11 21 22 20 18 11 13
45 46 50 48 12 26 7 21 18 15 4 8 9 8 14 5 5 21 11 10 9 14 16 17 19 22 20 17 23 21 19 21 19 14 13 10 14 16 7 15 16 25 19 15 13
46 49 49 45 15 8 14 24 21 10 5 6 12 15 23 5 8 8 12 12 4 3 4 15 23 26 10 14 19 16 13 11 14 13 14 16 10 10 6 18 14 20 16 18 15
49 50 50 27 8 19 22 23 18 3 7 3 16 21 26 25 24 20 18 4 9 8 12 16 22 21 14 18 21 16 7 9 11 11 11 15 13 15 13 17 17 14 11 21 17
51 50 44 13 6 9 18 9 3 5 19 14 26 22 19 19 24 23 26 18 6 7 7 13 21 28 10 8 18 22 9 5 3 4 10 14 15 13 10 15 18 16 18 17 18
51 53 29 16 17 17 12 4 5 8 15 21 18 23 14 23 21 24 22 19 12 13 10 8 14 11 4 13 8 3 8 8 6 5 10 16 16 13 20 19 15 18 20 23 19
49 34 18 17 10 9 3 3 4 15 17 17 18 16 22 17 15 20 17 20 15 4 3 6 6 10 12 4 3 4 5 6 5 6 4 4 22 16 21 21 19 21 20 17 14
37 12 13 2 3 9 1 8 12 16 18 14 15 12 17 21 14 15 12 10 16 11 12 4 6 9 4 4 15 10 3 5 3 5 4 7 10 10 1 8 15 23 22 20 19
14 6 3 2 10 2 5 9 17 18 16 12 15 17 14 15 15 16 5 19 13 9 4 3 4 4 5 4 4 3 4 5 3 3 4 8 10 6 4 5 12 22 21 8 2
9 4 10 25 4 5 4 11 16 21 17 9 11 13 7 8 7 10 6 9 19 14 5 2 1 4 6 11 2 3 4 5 4 6 6 5 7 3 7 6 15 21 12 11 10
6 4 14 26 5 10 12 17 20 19 10 10 11 14 4 3 9 11 7 8 14 9 2 3 3 4 7 7 10 2 8 5 9 1 13 7 4 14 15 11 16 7 14 13 14
4 5 5 7 11 15 14 18 17 15 14 16 15 15 5 15 14 12 22 11 6 10 21 4 4 4 3 10 9 10 11 4 4 5 3 9 13 8 17 17 16 8 10 9 12
3 4 7 7 11 17 15 14 17 15 13 14 6 17 19 13 18 14 18 19 17 6 4 5 3 4 9 14 17 17 18 17 6 7 5 4 6 5 8 14 9 6 8 4 13
4 5 6 12 13 16 14 13 18 19 15 11 15 21 17 13 15 11 17 16 12 14 4 2 3 7 8 14 9 16 18 18 20 16 15 13 4 5 3 4 4 6 4 4 4
12 15 3 8 11 11 11 18 20 18 7 18 19 15 11 13 19 23 21 23 19 14 17 11 5 4 4 9 17 10 9 17 18 15 14 7 7 6 3 6 3 10 13 13 13
Wind_Direction
350 346 342 338 335 332 329 327 325 322 320 320 320 319 317 316 315 310 245 241 203 252 244 279 269 277 263 229 236 257 231 246 237 244 255 284 287 289 292 346 20 72 127 148 147
348 344 340 336 332 328 325 320 318 317 314 315 314 317 317 323 314 276 274 256 234 235 248 249 237 241 240 210 227 195 224 238 250 255 258 269 277 279 315 306 285 102 111 134 146
350 346 343 339 334 330 327 321 318 315 312 311 311 314 316 329 295 245 164 192 232 222 219 240 275 303 249 226 224 219 233 245 255 249 258 265 277 287 302 310 232 147 143 151 157
354 349 346 343 339 336 333 326 319 314 311 310 311 314 313 317 303 194 169 110 80 179 202 221 214 233 261 236 219 245 239 240 255 261 269 269 306 293 320 256 260 232 159 161 168
354 351 348 345 342 339 336 331 321 313 309 308 308 315 331 227 246 252 218 221 163 166 190 201 192 183 227 229 248 258 241 250 246 246 258 272 263 268 288 296 274 11 42 173 177
354 351 348 345 341 337 334 330 325 315 309 305 303 302 271 266 248 248 207 195 190 200 207 206 222 201 279 237 243 277 269 259 242 246 245 247 260 273 274 275 266 292 119 95 139
352 349 346 344 341 337 334 328 318 310 302 295 282 255 245 251 250 227 190 256 232 221 232 234 226 246 212 266 243 259 271 275 256 265 254 267 255 242 250 266 267 261 188 165 197
351 349 346 343 341 338 332 326 319 314 297 286 269 214 250 261 281 268 261 259 252 237 265 252 267 255 247 266 283 281 270 254 255 254 259 235 250 249 249 246 251 256 242 196 200
349 347 345 343 341 337 330 325 323 307 301 230 194 217 262 305 233 247 236 255 237 246 242 263 282 267 283 269 270 253 255 261 265 245 247 228 256 241 235 222 239 245 241 226 217
348 345 344 341 339 338 329 328 331 333 45 216 252 244 265 245 234 185 223 218 252 247 224 206 261 238 246 233 236 238 253 253 256 263 234 243 257 246 214 233 243 244 240 233 224
346 344 342 341 338 336 333 340 339 20 206 245 247 233 278 287 307 190 212 207 218 273 255 202 218 229 217 229 243 263 265 254 253 242 243 248 254 243 222 217 232 223 223 232 231
345 344 341 339 336 334 325 267 0 298 300 262 266 260 263 263 273 274 278 238 199 231 249 254 233 234 235 246 240 235 245 258 272 272 278 268 253 249 234 222 214 212 207 214 228
343 341 341 337 336 352 315 296 340 352 299 300 256 247 242 224 245 258 240 249 229 232 231 246 260 243 225 241 248 242 246 249 245 254 268 266 274 272 264 229 209 208 197 203 202
340 338 336 340 333 324 298 350 341 351 298 280 17 28 20 351 351 314 258 251 259 273 239 246 262 252 266 267 236 247 238 249 262 260 246 251 262 262 249 278 246 205 198 210 214
338 334 333 336 281 291 305 325 328 316 308 52 29 339 355 41 285 312 31 342 185 248 275 299 304 300 282 282 302 281 291 332 310 293 293 249 254 264 252 233 262 197 205 212 209
335 330 332 334 246 271 302 324 310 232 248 355 13 353 346 341 329 325 317 301 200 207 207 215 256 259 240 244 260 269 271 313 325 296 273 251 234 251 243 247 268 252 213 205 214
333 327 326 288 243 325 337 323 296 231 349 350 349 348 330 324 335 336 328 323 346 334 312 297 274 275 231 268 277 279 215 209 285 268 259 256 240 228 220 225 215 238 232 223 204
332 327 326 268 278 293 315 336 259 15 320 345 339 327 343 341 336 334 323 312 307 296 287 277 290 249 267 255 290 232 325 232 212 221 264 259 260 234 246 244 239 236 233 232 222
331 331 312 318 239 279 354 302 298 341 343 332 335 333 330 338 335 339 318 300 285 112 328 298 253 324 296 243 338 307 255 297 179 194 258 277 270 240 232 236 237 255 257 258 234
329 307 291 160 278 308 278 247 300 321 330 332 329 341 328 326 339 330 309 297 324 309 162 247 281 255 314 14 184 200 151 314 3 181 226 235 270 247 290 318 266 240 249 251 267
321 314 188 335 321 268 245 284 308 324 344 350 339 322 321 343 332 314 307 299 343 342 351 271 260 289 295 208 181 163 150 180 192 161 204 261 253 190 261 313 317 294 235 229 137
315 311 295 1 326 295 6 340 329 321 2 345 333 320 356 344 300 311 287 293 321 310 316 132 249 277 265 257 52 164 323 204 179 184 208 245 270 353 295 346 315 274 237 110 72
307 267 331 2 2 357 341 330 315 339 329 348 342 337 61 343 307 284 271 302 315 321 6 341 244 308 333 39 43 354 285 302 255 295 235 244 263 348 336 352 308 338 99 87 90
292 312 341 324 10 349 327 312 339 322 335 357 328 318 6 323 311 295 307 326 326 295 283 259 259 238 272 307 292 280 287 255 188 238 288 258 286 2 337 315 278 354 41 95 84
254 350 341 324 330 316 316 313 321 344 357 342 335 339 321 312 312 298 323 318 326 294 273 173 236 277 297 297 289 286 283 288 211 244 251 270 276 135 246 277 274 355 345 77 84
348 341 351 295 320 321 313 353 347 344 348 340 327 318 322 298 294 295 307 295 283 300 318 208 283 311 290 289 317 305 274 254 247 205 220 251 258 180 254 317 301 280 291 62 112
341 328 344 296 319 320 343 338 333 340 329 322 316 324 296 316 306 291 277 270 261 280 288 288 282 357 259 333 311 278 299 228 217 215 199 200 185 176 101 286 50 69 72 69 48